EW6466 Weather Reports


Display with metric or nautical units.
time (UTC)temp
F
wind
direction
speed
MPH
gust
MPH
rain 1hr
in
rain 24hr
in
rain mn
in
humidity
%
barometer
mb
20260903234517 96 34 3.0 10.0 0.00 0.00 0.00 36 1006.8
20260903233017 96 96 4.0 11.0 0.00 0.00 0.00 36 1006.7
20260903231516 96 257 3.0 8.0 0.00 0.00 0.00 36 1006.5
20260903230021 96 53 3.0 10.0 0.00 0.00 0.00 34 1006.5
20260903224519 98 91 6.0 13.0 0.00 0.00 0.00 33 1006.5
20260903223017 100 55 5.0 10.0 0.00 0.00 0.00 33 1006.5
20260903221512 100 166 3.0 7.0 0.00 0.00 0.00 32 1006.5
20260903220016 101 149 2.0 10.0 0.00 0.00 0.00 32 1006.6
20260903214518 100 191 5.0 14.0 0.00 0.00 0.00 32 1006.5
20260903213009 99 57 2.0 9.0 0.00 0.00 0.00 33 1006.7
20260903211519 100 279 7.0 12.0 0.00 0.00 0.00 32 1006.9
20260903210012 100 71 4.0 12.0 0.00 0.00 0.00 33 1007.0
20260903204503 102 54 3.0 10.0 0.00 0.00 0.00 32 1007.1
20260903203102 100 180 7.0 13.0 0.00 0.00 0.00 34 1007.5
20260903201607 101 177 6.0 10.0 0.00 0.00 0.00 34 1007.6
20260903200101 101 178 4.0 12.0 0.00 0.00 0.00 34 1007.9
20260903194558 100 92 3.0 15.0 0.00 0.00 0.00 36 1008.0
20260903193053 102 146 7.0 15.0 0.00 0.00 0.00 34 1008.4
20260903191551 100 138 2.0 11.0 0.00 0.00 0.00 37 1008.5
20260903190048 101 140 4.0 12.0 0.00 0.00 0.00 35 1008.8
20260903184544 100 173 3.0 12.0 0.00 0.00 0.00 38 1009.2
20260903183039 99 201 4.0 9.0 0.00 0.00 0.00 38 1009.4
20260903181536 98 226 3.0 13.0 0.00 0.00 0.00 41 1009.8
20260903180040 96 204 5.0 12.0 0.00 0.00 0.00 39 1010.1
20260903174530 96 159 3.0 12.0 0.00 0.00 0.00 45 1010.2
20260903173026 95 231 7.0 12.0 0.00 0.00 0.00 44 1010.4
20260903171523 95 157 3.0 10.0 0.00 0.00 0.00 48 1010.6
20260903170020 93 162 5.0 8.0 0.00 0.00 0.00 51 1010.7
20260903164516 92 186 5.0 9.0 0.00 0.00 0.00 54 1010.9
20260903163012 91 192 3.0 9.0 0.00 0.00 0.00 56 1011.0
20260903161508 90 169 5.0 9.0 0.00 0.00 0.00 58 1010.9
20260903160007 88 165 3.0 8.0 0.00 0.00 0.00 62 1010.9
20260903154503 87 192 4.0 9.0 0.00 0.00 0.00 67 1010.8
20260903153121 85 190 5.0 11.0 0.00 0.00 0.00 69 1010.9
20260903151606 84 187 4.0 10.0 0.00 0.00 0.00 71 1010.9
20260903150104 82 192 3.0 10.0 0.00 0.00 0.00 75 1010.9
20260903144555 81 184 3.0 11.0 0.00 0.00 0.00 76 1010.9
20260903143105 81 184 4.0 8.0 0.00 0.00 0.00 76 1011.1
20260903141553 80 170 3.0 6.0 0.00 0.00 0.00 80 1011.0
20260903140052 79 177 3.0 7.0 0.00 0.00 0.00 82 1011.1
20260903134553 78 169 3.0 6.0 0.00 0.00 0.00 83 1011.1
20260903133051 77 177 3.0 8.0 0.00 0.00 0.00 84 1011.2
20260903131550 76 190 4.0 9.0 0.00 0.00 0.00 84 1011.1
20260903130048 76 171 3.0 6.0 0.00 0.00 0.00 85 1011.0
20260903124550 76 166 2.0 7.0 0.00 0.00 0.00 85 1010.9
20260903123047 76 150 3.0 8.0 0.00 0.00 0.00 84 1010.9
20260903121545 76 144 3.0 8.0 0.00 0.00 0.00 84 1010.7
20260903120050 76 190 3.0 9.0 0.00 0.00 0.00 84 1010.7
20260903114545 77 178 3.0 10.0 0.00 0.00 0.00 84 1010.4
20260903113043 77 195 3.0 8.0 0.00 0.00 0.00 84 1010.5
20260903111550 77 202 2.0 9.0 0.00 0.00 0.00 84 1010.5
20260903110041 77 165 2.0 9.0 0.00 0.00 0.00 83 1010.5
20260903104554 77 205 1.0 6.0 0.00 0.00 0.00 83 1010.4
20260903103054 77 167 2.0 7.0 0.00 0.00 0.00 83 1010.4
20260903101541 77 157 1.0 6.0 0.00 0.00 0.00 82 1010.5
20260903100037 77 173 4.0 11.0 0.00 0.00 0.00 81 1010.4
20260903094535 78 139 2.0 7.0 0.00 0.00 0.00 81 1010.5
20260903093044 78 217 4.0 11.0 0.00 0.00 0.00 81 1010.2
20260903091536 78 154 4.0 10.0 0.00 0.00 0.00 79 1010.5
20260903090033 78 198 4.0 8.0 0.00 0.00 0.00 78 1010.3
20260903084540 79 166 3.0 8.0 0.00 0.00 0.00 77 1010.4
20260903083022 79 106 0.0 4.0 0.00 0.00 0.00 75 1010.6
20260903081521 80 151 0.0 6.0 0.00 0.00 0.00 75 1010.7
20260903080020 80 164 2.0 6.0 0.00 0.00 0.00 75 1010.7
20260903074519 80 139 2.0 9.0 0.00 0.00 0.00 74 1010.7
20260903073017 81 148 2.0 7.0 0.00 0.00 0.00 73 1010.5
20260903071515 81 122 5.0 10.0 0.00 0.00 0.00 72 1010.7
20260903070022 82 157 3.0 10.0 0.00 0.00 0.00 71 1010.7
20260903064509 82 158 4.0 10.0 0.00 0.00 0.00 69 1010.8
20260903063008 83 207 7.0 15.0 0.00 0.00 0.00 68 1010.8
20260903061513 83 202 5.0 14.0 0.00 0.00 0.00 67 1010.8
20260903060004 83 224 6.0 15.0 0.00 0.00 0.00 66 1010.9
20260903054508 84 167 4.0 12.0 0.00 0.00 0.00 64 1010.9
20260903053002 84 167 5.0 11.0 0.00 0.00 0.00 62 1010.9
20260903051600 84 185 3.0 11.0 0.00 0.00 0.00 60 1010.8
20260903050056 82 190 3.0 14.0 0.00 0.00 0.00 59 1010.7
20260903044555 78 225 2.0 10.0 0.00 0.00 0.00 62 1010.8
20260903043055 77 192 0.0 2.0 0.00 0.00 0.00 60 1010.5
20260903041554 77 192 0.0 2.0 0.00 0.00 0.00 59 1010.4
20260903040057 78 192 0.0 2.0 0.00 0.00 0.00 58 1010.3
20260903034553 78 192 0.0 3.0 0.00 0.00 0.00 57 1010.3
20260903033059 79 192 0.0 2.0 0.00 0.00 0.00 56 1010.1
20260903031553 80 192 0.0 0.0 0.00 0.00 0.00 55 1009.9
20260903030100 80 192 0.0 0.0 0.00 0.00 0.00 54 1009.7
20260903024551 82 192 0.0 0.0 0.00 0.00 0.00 52 1009.6
20260903023051 83 192 0.0 0.0 0.00 0.00 0.00 49 1009.2
20260903021550 84 192 0.0 1.0 0.00 0.00 0.00 48 1009.0
20260903014551 88 192 0.0 3.0 0.00 0.00 0.00 43 1008.7
20260903013049 90 192 1.0 4.0 0.00 0.00 0.00 39 1008.6
20260903011548 91 191 0.0 2.0 0.00 0.00 0.00 37 1008.5
20260903010147 92 191 0.0 5.0 0.00 0.00 0.00 36 1008.4
20260903004548 93 193 2.0 6.0 0.00 0.00 0.00 36 1008.4
20260903003047 94 65 1.0 4.0 0.00 0.00 0.00 36 1008.4
20260903001559 94 69 1.0 5.0 0.00 0.00 0.00 35 1008.5
20260903000046 95 54 3.0 7.0 0.00 0.00 0.00 35 1008.5